Weather History for PAQT - July, 2013

Change the Weather History Date:

Monday, July 15, 2013

  Actual Average (WUND) Record (WUND)
Temperature  
Mean Temperature 52 °F -  
Max Temperature 63 °F - - (-1)
Min Temperature 42 °F - - (-1)
Degree Days  
Heating Degree Days 13    
Growing Degree Days 2 (Base 50)    
Moisture  
Dew Point 45 °F    
Average Humidity 75    
Maximum Humidity 92    
Minimum Humidity 60    
Precipitation  
Precipitation 0.00 in - - ()
Sea Level Pressure  
Sea Level Pressure 30.08 in    
Wind  
Wind Speed 10 mph (ENE)    
Max Wind Speed 15 mph    
Max Gust Speed -    
Visibility 10 miles    
Events      
Averages and records for this station are not official NWS values.
T = Trace of Precipitation, MM = Missing Value Source: NWS Daily Summary

Daily Weather History Graph

Daily Weather History Graph

Search for Another Location

Airport or City:

Trip Planner

Search our weather history database for the weather conditions in past years. The results will help you decide how hot, cold, wet, or windy it might be!

Date:

Astronomy

Dec. 31, 1969 Rise Set
Actual Time Sun does not set Sun does not set
Civil Twilight Sun does not set Sun does not set
Nautical Twilight Sun does not set Sun does not set
Astronomical Twilight Sun does not set Sun does not set
Moon 3:49 PM AKDT (7/15) 11:41 PM AKDT (7/15)
Length of Visible Light 24h 00m
Length of Day
24h 00m
Waxing Crescent, 47% of the Moon is Illuminated
Jul 15
Waxing Crescent
Jul 15
First Quarter
Jul 22
Full
Jul 29
Last Quarter
Aug 6
New

Hourly Weather History & Observations

Time (AKDT) Temp. Windchill Dew Point Humidity Pressure Visibility Wind Dir Wind Speed Gust Speed Precip Events Conditions
12:53 AM 46.9 °F - 42.1 °F 83% 30.10 in 10.0 mi East 10.4 mph - N/A   Clear
1:53 AM 44.1 °F 38.1 °F 41.0 °F 89% 30.12 in 10.0 mi East 11.5 mph - N/A   Unknown
2:53 AM 43.0 °F 37.7 °F 39.9 °F 89% 30.12 in 10.0 mi East 9.2 mph - N/A   Clear
3:53 AM 42.1 °F 37.1 °F 39.9 °F 92% 30.13 in 10.0 mi East 8.1 mph - N/A   Clear
4:53 AM 43.0 °F 36.8 °F 39.9 °F 89% 30.12 in 10.0 mi East 11.5 mph - N/A   Clear
5:53 AM 43.0 °F 36.0 °F 39.9 °F 89% 30.11 in 10.0 mi East 13.8 mph - N/A   Clear
6:53 AM 45.0 °F 38.2 °F 41.0 °F 86% 30.10 in 10.0 mi East 15.0 mph - N/A   Clear
7:53 AM 46.9 °F - 41.0 °F 80% 30.10 in 10.0 mi East 11.5 mph - N/A   Clear
8:53 AM 48.9 °F - 42.1 °F 77% 30.09 in 10.0 mi East 12.7 mph - N/A   Clear
9:53 AM 52.0 °F - 43.0 °F 71% 30.09 in 10.0 mi East 9.2 mph - N/A   Clear
10:53 AM 55.9 °F - 45.0 °F 67% 30.09 in 10.0 mi ESE 10.4 mph - N/A   Clear
11:53 AM 57.0 °F - 45.0 °F 64% 30.07 in 10.0 mi ENE 12.7 mph - N/A   Partly Cloudy
12:53 PM 57.9 °F - 46.0 °F 65% 30.06 in 10.0 mi ENE 11.5 mph - 0.00 in   Mostly Cloudy
1:53 PM 59.0 °F - 46.0 °F 62% 30.06 in 10.0 mi ENE 12.7 mph - 0.00 in   Unknown
2:53 PM 59.0 °F - 46.9 °F 64% 30.05 in 10.0 mi East 10.4 mph - N/A   Overcast
3:53 PM 61.0 °F - 48.0 °F 62% 30.05 in 10.0 mi East 11.5 mph - N/A   Mostly Cloudy
4:53 PM 62.1 °F - 48.0 °F 60% 30.04 in 10.0 mi ENE 9.2 mph - N/A   Clear
5:53 PM 61.0 °F - 48.9 °F 64% 30.04 in 10.0 mi NE 8.1 mph - 0.00 in   Scattered Clouds
6:53 PM 59.0 °F - 48.9 °F 69% 30.05 in - ENE 8.1 mph - N/A   Unknown
7:53 PM 57.9 °F - 48.9 °F 72% 30.05 in 10.0 mi ENE 8.1 mph - N/A   Mostly Cloudy
8:53 PM 55.9 °F - 48.0 °F 75% 30.04 in 10.0 mi ENE 8.1 mph - N/A   Overcast
9:53 PM 55.0 °F - 48.0 °F 77% 30.05 in 10.0 mi ENE 8.1 mph - 0.00 in   Overcast
10:53 PM 53.1 °F - 46.9 °F 80% 30.05 in 10.0 mi East 6.9 mph - 0.00 in   Mostly Cloudy
11:53 PM 52.0 °F - 46.9 °F 83% 30.06 in 10.0 mi ENE 3.5 mph - 0.00 in   Overcast